This is the latest recevied weather packets stored in our database for station/object AI5ON. If no packets are shown the sender has not sent any weather packets the latest 10 day(s).
| Time | Temp. | Humidity | Pressure | Rain* | Wind** | Luminosity | Snow |
|---|---|---|---|---|---|---|---|
| 1788013215 | 30° C | 75% | 1017.4 hPa | 0 mm | - | 383 W/m² | - |
| 1788012909 | 30° C | 76% | 1017.4 hPa | 0 mm | - | 359 W/m² | - |
| 1788012603 | 30° C | 76% | 1017.3 hPa | 0 mm | - | 342 W/m² | - |
| 1788012298 | 30° C | 76% | 1017.4 hPa | 0 mm | - | 319 W/m² | - |
| 1788011997 | 30° C | 76% | 1017.3 hPa | 0 mm | - | 302 W/m² | - |
| 1788011696 | 29.44° C | 77% | 1017.3 hPa | 0 mm | - | 287 W/m² | - |
| 1788011392 | 28.89° C | 80% | 1017.2 hPa | 0 mm | - | 268 W/m² | - |
| 1788011091 | 28.89° C | 78% | 1017.4 hPa | 0 mm | - | 249 W/m² | - |
| 1788010787 | 28.89° C | 78% | 1017.3 hPa | 0 mm | - | 230 W/m² | - |
| 1788010485 | 28.33° C | 82% | 1017.3 hPa | 0 mm | - | 213 W/m² | - |
| 1788010180 | 27.78° C | 82% | 1017.2 hPa | 0 mm | - | 129 W/m² | - |
| 1788009875 | 27.78° C | 82% | 1017.3 hPa | 0 mm | - | 182 W/m² | - |
| 1788009572 | 27.22° C | 83% | 1017.3 hPa | 0 mm | - | 167 W/m² | - |
| 1788009268 | 27.22° C | 83% | 1017.2 hPa | 0 mm | - | 150 W/m² | - |
| 1788008967 | 27.22° C | 85% | 1017.3 hPa | 0 mm | - | 139 W/m² | - |
| 1788008664 | 27.22° C | 84% | 1017.2 hPa | 0 mm | - | 125 W/m² | - |
| 1788008361 | 26.67° C | 85% | 1017.1 hPa | 0 mm | - | 80 W/m² | - |
| 1788008059 | 26.67° C | 87% | 1017.1 hPa | 0 mm | - | 86 W/m² | - |
| 1788007758 | 26.67° C | 88% | 1017.1 hPa | 0 mm | - | 74 W/m² | - |
| 1788007454 | 26.67° C | 88% | 1017.1 hPa | 0 mm | - | 69 W/m² | - |
| 1788007153 | 26.67° C | 90% | 1017 hPa | 0 mm | - | 65 W/m² | - |
| 1788006852 | 26.11° C | 90% | 1017 hPa | 0 mm | - | 58 W/m² | - |
| 1788006546 | 26.11° C | 91% | 1017 hPa | 0 mm | - | 51 W/m² | - |
| 1788006241 | 26.11° C | 92% | 1017.1 hPa | 0 mm | - | 44 W/m² | - |
| 1788005940 | 25.56° C | 93% | 1016.9 hPa | 0 mm | - | 37 W/m² | - |
* Rain latest hour (hover to see other rain measurements)
** Current wind speed in m/s (hover to see current wind gust speed)